Wind_Speed
11 12 12 11 10 8 8 8 7 6 6 5 5 4 3 3 3 2 2 2 2 2 2 3 3 3 3 3 4 5 5 6 6 7 7 6 6 7 7 6 6 6 6
11 11 12 11 10 9 8 8 7 7 6 5 4 4 3 3 2 3 2 2 2 3 3 3 3 3 3 3 4 5 6 6 7 7 7 7 8 8 8 8 7 7 8
11 11 11 11 10 9 8 8 7 7 6 5 4 4 3 3 3 3 3 3 4 4 3 3 3 4 4 4 4 5 5 6 7 7 8 8 8 8 9 8 9 9 9
10 10 11 11 11 9 8 8 7 7 6 4 4 3 4 4 4 4 4 5 5 5 4 4 5 5 5 6 6 6 7 8 8 8 8 9 9 9 9 9 10 10 11
11 10 11 11 11 10 8 7 7 7 6 5 4 4 5 5 5 6 6 6 6 6 6 5 6 7 7 8 8 8 8 9 9 9 9 10 10 10 11 11 11 12 12
13 12 12 11 11 10 8 7 7 7 7 6 6 5 6 6 7 7 7 8 8 8 8 8 8 9 9 9 9 10 10 9 10 10 10 11 11 12 12 12 13 13 13
14 13 13 10 11 10 10 9 9 8 8 8 7 7 7 8 8 9 9 10 9 9 9 10 10 10 10 10 10 10 10 10 11 11 12 13 13 13 14 14 14 14 15
14 14 14 13 12 11 11 11 10 9 10 10 10 9 9 9 10 10 10 10 11 11 11 11 11 11 11 11 11 11 11 11 12 13 13 14 14 15 15 16 16 17 16
15 16 16 15 13 13 12 12 12 12 12 12 12 11 11 11 12 11 12 12 12 13 13 13 13 13 12 12 12 12 12 12 13 13 14 15 16 16 17 17 18 18 18
16 16 17 17 15 14 14 14 14 14 14 14 14 13 13 13 13 13 13 13 14 14 15 15 15 15 15 14 14 14 13 13 14 15 15 16 16 16 17 17 17 18 17
17 17 17 17 16 16 16 16 16 16 16 16 16 15 14 14 15 15 15 15 15 16 16 17 16 16 17 16 16 15 16 16 16 16 17 17 16 17 17 18 17 18 18
18 18 18 18 17 17 18 17 17 18 17 17 17 17 17 16 16 17 17 17 17 17 17 18 18 18 18 18 17 17 17 17 17 17 17 18 18 18 18 18 18 19 19
22 20 18 18 18 18 19 19 19 19 19 18 19 19 19 19 19 18 18 19 19 19 19 19 19 19 19 20 20 19 19 19 19 19 19 19 20 19 19 19 19 20 20
24 22 21 20 19 19 19 20 20 20 20 20 20 20 20 20 20 20 20 20 20 19 20 20 20 20 20 21 21 21 21 21 21 21 21 21 20 20 20 20 20 20 20
25 23 22 20 20 19 20 21 20 20 19 20 20 20 20 20 21 20 20 20 20 20 21 21 21 21 22 22 22 22 23 23 23 23 23 23 22 22 21 21 21 22 22
25 24 23 21 21 21 21 21 21 21 20 20 21 21 21 21 21 21 20 21 21 21 22 22 22 23 23 23 23 23 24 24 24 25 24 24 24 23 22 22 22 24 24
26 25 24 23 23 23 22 21 21 21 20 21 21 21 21 21 21 21 21 21 22 22 22 23 23 23 24 24 24 24 24 25 26 25 24 24 24 24 24 24 24 24 24
26 25 25 24 24 23 22 23 23 22 21 21 22 22 22 21 21 22 22 22 23 23 23 23 23 24 24 25 25 25 25 25 25 25 25 25 24 25 25 25 25 26 26
27 26 26 26 26 25 23 23 23 22 22 22 23 23 23 23 22 23 23 24 24 24 24 24 25 25 25 26 26 26 26 26 26 27 26 26 26 26 27 27 27 27 28
28 28 27 27 27 26 25 25 25 25 24 23 24 25 25 25 24 24 24 24 25 25 25 25 25 25 25 26 26 27 27 28 28 28 28 28 28 28 29 29 29 28 28
28 28 28 29 29 29 28 27 26 26 25 25 25 25 25 25 25 25 25 25 25 25 25 25 26 26 26 26 27 28 28 28 28 29 29 29 29 29 29 30 29 29 29
29 29 29 29 30 30 29 27 27 27 27 26 25 25 26 26 26 26 26 26 26 26 26 26 27 27 27 28 28 29 29 29 29 29 29 29 29 30 30 30 29 30 30
30 30 29 29 29 29 29 29 28 28 28 28 27 26 26 25 25 26 26 26 26 26 27 27 27 27 28 29 30 30 30 30 30 29 30 30 30 30 30 30 30 30 30
29 30 29 29 29 30 30 30 28 27 28 27 27 27 26 25 25 26 26 26 26 26 27 27 27 27 28 29 29 29 30 30 29 29 29 29 30 30 31 31 30 30 30
29 29 29 29 29 29 28 27 28 28 27 27 27 26 25 26 26 26 26 26 26 26 26 26 27 28 28 28 29 29 29 29 29 29 29 29 29 29 29 30 30 30 29
30 28 28 28 27 27 27 27 27 27 27 27 26 26 25 25 25 25 25 26 26 27 27 27 28 29 29 29 29 29 29 29 29 30 30 29 29 29 29 29 29 29 29
Wind_Direction
6 7 8 11 14 15 12 8 12 13 9 5 4 2 9 15 11 7 8 8 360 343 300 274 276 277 281 278 268 264 263 265 266 267 271 269 271 273 276 275 275 279 283
2 2 360 1 2 3 3 2 3 2 359 356 354 357 2 5 349 333 330 335 332 328 310 280 272 277 279 281 284 273 264 267 269 271 268 266 274 276 272 272 278 281 282
357 354 352 352 352 348 348 350 351 352 350 350 349 346 337 321 312 307 308 312 310 310 313 296 294 296 294 287 291 287 279 272 273 273 270 268 272 271 274 274 276 279 277
346 349 348 345 344 339 336 338 341 342 343 340 336 330 315 303 292 293 298 302 305 305 298 284 286 291 286 287 287 287 281 280 278 276 273 272 271 274 274 273 278 277 278
335 340 341 341 339 334 330 330 331 335 337 330 320 316 305 301 295 287 286 289 294 294 292 286 284 286 285 288 287 287 288 284 280 279 278 277 272 276 276 275 275 277 279
329 331 333 332 331 329 326 325 323 320 320 316 310 305 297 289 289 287 284 282 284 287 288 286 284 283 282 284 287 289 292 287 281 279 279 279 277 275 274 275 277 276 277
320 321 324 330 329 326 323 317 315 312 314 314 310 305 299 292 287 286 283 281 282 284 285 281 281 282 282 284 286 289 289 286 281 283 282 280 279 277 275 275 276 276 277
312 313 317 325 326 320 314 310 307 300 304 305 301 299 295 291 285 282 283 281 280 281 283 282 283 283 285 285 284 285 285 284 284 286 286 284 280 278 278 276 276 277 278
302 304 309 314 316 316 310 302 300 300 302 302 296 293 290 287 284 282 279 278 277 277 279 281 282 281 281 282 283 284 284 285 286 286 285 283 281 279 279 280 280 279 279
299 300 304 307 310 310 306 300 298 298 299 300 297 290 287 286 283 281 279 277 276 276 276 277 279 279 279 279 281 281 284 287 286 287 286 286 283 282 283 284 284 284 283
298 301 302 303 303 305 304 298 294 294 294 295 298 297 292 287 284 282 279 277 275 274 275 275 276 277 277 277 277 279 281 284 284 285 285 284 285 287 286 286 285 284 283
293 291 293 293 297 299 300 296 292 291 290 291 291 293 293 290 288 286 282 279 276 274 274 275 275 275 276 276 277 278 278 279 281 283 283 282 282 286 287 287 286 284 283
297 295 291 292 292 296 297 296 294 289 289 290 289 289 291 289 288 289 285 280 277 275 274 275 275 273 274 275 277 279 278 276 277 279 281 281 281 283 286 285 284 283 283
297 295 291 291 293 295 295 293 292 290 287 287 288 289 289 289 289 289 287 284 278 274 274 275 274 274 275 277 278 279 279 279 278 278 279 279 281 282 282 281 282 283 284
292 294 290 288 293 293 293 294 293 291 290 289 289 290 290 290 290 290 288 284 281 277 275 275 276 276 277 279 280 282 281 281 279 279 278 277 279 279 280 282 282 283 285
290 292 289 287 289 291 290 291 293 292 290 289 289 288 288 289 289 289 287 284 281 278 276 275 275 276 278 280 280 281 281 280 281 280 280 278 278 278 280 283 285 285 284
290 290 289 290 290 292 289 286 289 289 287 287 286 287 288 287 287 287 284 284 282 279 277 277 276 277 279 280 280 280 282 281 281 279 278 277 277 279 280 282 285 287 286
287 287 287 288 289 292 291 289 289 286 284 284 284 286 287 287 286 285 285 283 281 280 277 277 277 278 279 280 281 281 281 281 280 279 278 278 279 279 280 281 282 284 285
285 287 289 289 287 288 289 288 289 289 288 283 283 285 285 284 284 283 283 281 280 280 279 278 277 278 280 280 280 280 281 282 282 281 280 279 279 280 280 280 281 282 283
283 285 285 289 289 287 287 288 288 289 288 286 284 283 282 283 281 281 282 282 280 279 278 278 279 279 279 280 280 281 281 281 281 281 281 279 279 280 280 280 280 281 283
282 283 284 286 286 288 287 288 287 288 288 287 286 284 283 281 279 279 280 282 282 280 278 278 279 280 280 280 281 281 281 281 281 281 281 280 278 277 278 280 281 281 282
283 282 283 284 286 287 287 287 287 288 287 287 287 287 283 280 278 278 280 282 283 282 281 280 280 280 282 281 282 282 281 281 281 281 281 280 279 278 278 279 280 281 281
282 281 281 282 284 286 286 288 287 285 286 286 288 290 287 282 282 282 282 282 283 283 282 282 283 284 285 285 285 285 285 283 282 281 281 281 280 280 279 280 280 280 280
283 285 284 283 285 285 285 286 286 286 284 285 286 288 286 285 285 284 284 284 284 283 282 281 282 283 284 286 286 285 286 286 284 282 282 282 281 280 281 280 281 281 281
283 285 285 285 283 285 284 285 285 288 290 288 287 285 285 286 286 286 286 285 284 283 283 283 283 284 284 285 286 285 286 286 284 284 285 285 283 282 284 283 282 282 282
283 284 285 286 285 287 286 286 286 288 289 288 287 287 287 288 288 287 286 285 284 284 284 284 284 284 284 285 285 285 286 286 286 288 288 286 284 283 282 283 282 281 279
Height
5914 5912 5911 5909 5908 5907 5906 5905 5904 5903 5902 5901 5900 5899 5899 5898 5898 5898 5898 5897 5897 5896 5896 5895 5895 5894 5894 5894 5893 5893 5893 5893 5893 5892 5892 5892 5891 5891 5891 5890 5890 5889 5889
5913 5912 5911 5909 5908 5907 5906 5904 5903 5902 5901 5900 5899 5899 5898 5898 5898 5897 5897 5896 5896 5895 5894 5894 5893 5893 5893 5893 5892 5892 5891 5891 5891 5890 5890 5890 5890 5889 5889 5888 5888 5887 5887
5913 5911 5910 5909 5907 5906 5905 5904 5903 5901 5900 5899 5899 5898 5898 5897 5896 5896 5896 5895 5895 5894 5893 5893 5892 5892 5892 5891 5891 5890 5890 5889 5888 5888 5888 5888 5888 5887 5887 5886 5886 5885 5884
5912 5910 5909 5908 5906 5905 5904 5902 5901 5900 5899 5899 5898 5897 5897 5896 5895 5895 5894 5894 5893 5893 5892 5891 5891 5890 5890 5890 5889 5888 5888 5887 5886 5886 5886 5886 5885 5885 5885 5884 5883 5883 5882
5910 5909 5908 5907 5905 5903 5902 5901 5900 5899 5898 5897 5897 5896 5895 5894 5894 5893 5893 5892 5891 5891 5890 5889 5889 5889 5888 5887 5887 5886 5885 5885 5884 5883 5883 5882 5882 5882 5882 5881 5881 5880 5879
5909 5907 5906 5905 5903 5902 5900 5899 5899 5898 5897 5896 5894 5894 5893 5892 5892 5891 5890 5890 5889 5888 5888 5887 5887 5886 5885 5885 5884 5883 5883 5882 5881 5880 5880 5879 5879 5878 5878 5878 5877 5876 5875
5907 5906 5904 5902 5901 5899 5898 5897 5897 5895 5895 5894 5893 5892 5891 5890 5889 5888 5888 5887 5886 5886 5885 5884 5884 5883 5882 5882 5881 5881 5880 5879 5878 5877 5877 5876 5875 5874 5874 5873 5873 5872 5871
5905 5903 5901 5900 5898 5897 5896 5895 5894 5893 5892 5891 5890 5889 5888 5887 5886 5886 5885 5884 5884 5883 5882 5881 5880 5879 5879 5879 5878 5877 5876 5875 5875 5874 5873 5872 5871 5870 5869 5869 5868 5867 5867
5901 5900 5898 5897 5895 5894 5893 5892 5890 5889 5888 5887 5886 5886 5885 5884 5883 5882 5881 5880 5880 5879 5878 5878 5877 5876 5875 5875 5874 5873 5872 5872 5871 5870 5869 5868 5867 5865 5864 5863 5863 5862 5861
5897 5896 5894 5893 5892 5891 5889 5888 5886 5885 5884 5883 5882 5881 5880 5879 5878 5878 5877 5876 5876 5875 5874 5873 5873 5872 5871 5871 5870 5869 5868 5867 5866 5865 5864 5863 5862 5861 5860 5858 5857 5856 5856
5893 5891 5889 5889 5887 5887 5885 5884 5883 5881 5880 5879 5878 5877 5876 5875 5874 5873 5872 5871 5871 5870 5869 5869 5868 5867 5867 5866 5865 5865 5864 5863 5862 5861 5859 5858 5857 5856 5855 5853 5852 5851 5850
5887 5886 5885 5884 5883 5881 5880 5879 5878 5877 5876 5875 5873 5872 5871 5869 5869 5868 5867 5866 5865 5865 5864 5863 5863 5862 5862 5861 5860 5859 5858 5857 5856 5855 5854 5853 5851 5851 5849 5848 5847 5846 5845
5882 5881 5880 5879 5878 5876 5875 5874 5873 5871 5870 5869 5868 5867 5866 5864 5863 5862 5861 5860 5859 5859 5858 5858 5857 5856 5856 5855 5854 5853 5852 5852 5851 5850 5848 5846 5845 5844 5843 5842 5841 5840 5839
5877 5876 5875 5873 5872 5871 5870 5868 5867 5865 5864 5863 5862 5861 5860 5858 5857 5856 5855 5854 5853 5852 5852 5851 5851 5850 5849 5849 5848 5847 5846 5845 5844 5843 5842 5841 5840 5838 5837 5836 5835 5833 5832
5872 5870 5869 5867 5865 5864 5863 5862 5861 5859 5858 5857 5856 5854 5853 5852 5850 5849 5848 5847 5846 5846 5845 5845 5844 5843 5843 5842 5841 5840 5839 5838 5837 5836 5835 5834 5833 5832 5830 5829 5828 5827 5826
5865 5863 5862 5861 5859 5857 5856 5855 5854 5853 5851 5850 5849 5848 5847 5845 5844 5843 5842 5840 5840 5839 5838 5838 5837 5837 5836 5835 5834 5833 5832 5831 5830 5829 5828 5827 5826 5825 5824 5823 5821 5820 5819
5857 5856 5855 5854 5853 5851 5849 5848 5847 5846 5845 5844 5842 5841 5840 5839 5837 5836 5835 5834 5833 5832 5831 5831 5830 5829 5829 5828 5827 5826 5825 5824 5822 5821 5820 5819 5818 5818 5817 5815 5814 5813 5811
5850 5849 5848 5847 5846 5843 5841 5841 5840 5839 5838 5836 5835 5834 5833 5831 5830 5829 5828 5827 5826 5825 5824 5823 5823 5822 5821 5820 5819 5818 5817 5816 5815 5814 5813 5812 5811 5810 5809 5808 5806 5805 5803
5842 5842 5840 5839 5838 5836 5835 5835 5833 5832 5830 5828 5828 5827 5826 5824 5823 5822 5821 5820 5819 5818 5817 5816 5815 5814 5814 5813 5812 5811 5809 5808 5807 5806 5805 5804 5803 5802 5801 5800 5798 5797 5796
5835 5834 5833 5832 5831 5829 5828 5827 5826 5824 5822 5822 5821 5819 5818 5817 5815 5814 5813 5812 5811 5810 5809 5808 5807 5806 5806 5805 5804 5803 5801 5800 5799 5798 5797 5796 5795 5793 5792 5791 5790 5789 5787
5829 5827 5826 5825 5823 5822 5820 5819 5818 5817 5815 5814 5812 5811 5810 5809 5807 5806 5805 5804 5803 5802 5801 5800 5799 5798 5797 5796 5795 5794 5793 5791 5790 5789 5788 5786 5785 5784 5782 5781 5780 5779 5778
5822 5820 5819 5818 5816 5814 5813 5812 5811 5809 5807 5806 5804 5803 5801 5800 5799 5798 5797 5796 5795 5794 5792 5791 5791 5789 5789 5788 5786 5785 5784 5782 5781 5780 5778 5777 5775 5774 5773 5772 5771 5770 5769
5814 5813 5812 5811 5809 5807 5805 5804 5803 5801 5800 5798 5796 5794 5794 5792 5791 5790 5789 5788 5787 5786 5785 5784 5783 5782 5781 5779 5778 5776 5774 5773 5771 5770 5769 5768 5766 5765 5764 5763 5762 5760 5759
5807 5805 5804 5803 5801 5799 5798 5796 5795 5793 5792 5791 5789 5787 5786 5784 5783 5782 5781 5780 5779 5778 5777 5776 5775 5774 5772 5771 5769 5767 5765 5764 5762 5761 5760 5758 5757 5756 5755 5754 5752 5751 5749
5798 5797 5796 5795 5794 5792 5791 5789 5788 5786 5784 5783 5782 5780 5778 5777 5776 5775 5773 5772 5771 5770 5769 5767 5766 5765 5764 5762 5761 5759 5757 5755 5753 5752 5751 5750 5748 5747 5746 5744 5743 5741 5740
5789 5788 5788 5787 5786 5784 5783 5782 5780 5778 5777 5776 5774 5773 5772 5770 5768 5767 5766 5764 5763 5762 5760 5759 5757 5756 5755 5753 5752 5750 5748 5747 5745 5744 5742 5741 5739 5738 5737 5735 5733 5732 5731